TimeAKST,TemperatureF,Dew PointF,Humidity,Sea Level PressureIn,VisibilityMPH,Wind Direction,Wind SpeedMPH,Gust SpeedMPH,PrecipitationIn,Events,Conditions,WindDirDegrees,DateUTC
12:53 AM,37.9,36.0,93,29.34,4.0,NW,9.2,20.7,0.16,Rain,Rain,320,2014-01-16 09:53:00
1:53 AM,37.0,34.0,89,29.29,8.0,WNW,23.0,29.9,0.10,Rain,Light Rain,290,2014-01-16 10:53:00
2:14 AM,37.4,33.8,87,29.28,10.0,WNW,26.5,-,0.00,Rain,Light Rain,290,2014-01-16 11:14:00
2:53 AM,36.0,34.0,93,29.27,10.0,WNW,21.9,28.8,0.01,,Mostly Cloudy,290,2014-01-16 11:53:00
3:53 AM,37.9,34.0,86,29.33,10.0,WNW,12.7,17.3,N/A,,Overcast,300,2014-01-16 12:53:00
4:53 AM,37.9,33.1,83,29.36,10.0,WNW,11.5,23.0,N/A,,Overcast,300,2014-01-16 13:53:00
5:53 AM,37.9,33.1,83,29.37,10.0,WNW,9.2,-,N/A,,Overcast,300,2014-01-16 14:53:00
6:53 AM,39.0,33.1,79,29.45,10.0,SSW,9.2,-,N/A,,Overcast,210,2014-01-16 15:53:00
7:53 AM,35.1,33.1,92,29.46,10.0,Calm,Calm,-,N/A,,Mostly Cloudy,0,2014-01-16 16:53:00
8:17 AM,35.6,32.0,87,29.47,10.0,Calm,Calm,-,N/A,,Partly Cloudy,0,2014-01-16 17:17:00
8:53 AM,33.1,30.9,92,29.49,10.0,Calm,Calm,-,N/A,,Scattered Clouds,0,2014-01-16 17:53:00
9:53 AM,32.0,30.9,96,29.52,10.0,West,4.6,-,N/A,,Scattered Clouds,280,2014-01-16 18:53:00
10:53 AM,33.1,30.9,92,29.52,10.0,West,4.6,-,N/A,,Scattered Clouds,260,2014-01-16 19:53:00
11:53 AM,35.1,30.9,85,29.56,10.0,SE,3.5,-,N/A,,Mostly Cloudy,130,2014-01-16 20:53:00
12:53 PM,36.0,33.1,89,29.55,10.0,Variable,3.5,-,N/A,,Mostly Cloudy,0,2014-01-16 21:53:00
1:53 PM,36.0,34.0,93,29.53,10.0,Calm,Calm,-,N/A,,Clear,0,2014-01-16 22:53:00
2:53 PM,37.0,33.1,86,29.57,10.0,Calm,Calm,-,N/A,,Mostly Cloudy,0,2014-01-16 23:53:00
3:53 PM,37.0,34.0,89,29.56,10.0,Calm,Calm,-,N/A,,Overcast,0,2014-01-17 00:53:00
4:26 PM,37.4,35.6,93,29.56,10.0,NE,5.8,-,N/A,,Overcast,50,2014-01-17 01:26:00
4:53 PM,39.0,36.0,89,29.56,10.0,NE,5.8,-,N/A,,Overcast,50,2014-01-17 01:53:00
5:53 PM,39.0,37.0,93,29.55,5.0,East,8.1,-,N/A,,Overcast,80,2014-01-17 02:53:00
6:53 PM,39.0,37.9,96,29.51,8.0,NE,10.4,-,N/A,,Overcast,50,2014-01-17 03:53:00
7:53 PM,39.9,39.0,97,29.49,10.0,NE,11.5,-,N/A,,Overcast,50,2014-01-17 04:53:00
8:53 PM,41.0,39.0,93,29.44,10.0,ENE,21.9,27.6,N/A,,Overcast,60,2014-01-17 05:53:00
9:53 PM,41.0,39.0,93,29.36,2.0,NE,21.9,-,0.05,Rain,Heavy Rain,40,2014-01-17 06:53:00
10:05 PM,41.0,39.2,93,29.33,3.0,NE,24.2,29.9,0.06,Rain,Heavy Rain,40,2014-01-17 07:05:00
10:53 PM,41.0,41.0,100,29.28,3.0,NE,13.8,33.4,0.44,Rain,Heavy Rain,50,2014-01-17 07:53:00
11:00 PM,41.0,41.0,100,29.26,2.0,NE,12.7,20.7,0.19,Rain,Heavy Rain,40,2014-01-17 08:00:00
11:53 PM,41.0,41.0,100,29.21,2.0,ENE,10.4,-,1.04,Rain,Heavy Rain,60,2014-01-17 08:53:00